TimeAKST,TemperatureF,Dew PointF,Humidity,Sea Level PressureIn,VisibilityMPH,Wind Direction,Wind SpeedMPH,Gust SpeedMPH,PrecipitationIn,Events,Conditions,WindDirDegrees,DateUTC
12:16 AM,14.0,8.6,79,30.21,10.0,ENE,4.6,-,N/A,,Mostly Cloudy,70,2013-01-19 09:16:00
12:36 AM,12.2,8.6,85,30.21,10.0,ENE,3.5,-,N/A,,Scattered Clouds,70,2013-01-19 09:36:00
12:56 AM,12.2,8.6,85,30.21,10.0,ENE,3.5,-,N/A,,Partly Cloudy,60,2013-01-19 09:56:00
1:16 AM,12.2,8.6,85,30.21,10.0,Calm,Calm,-,N/A,,Mostly Cloudy,0,2013-01-19 10:16:00
1:36 AM,12.2,8.6,85,30.21,10.0,Calm,Calm,-,N/A,,Overcast,0,2013-01-19 10:36:00
1:56 AM,12.2,8.6,85,30.20,10.0,East,3.5,-,N/A,,Overcast,80,2013-01-19 10:56:00
2:16 AM,12.2,8.6,85,30.20,10.0,East,3.5,-,N/A,,Overcast,90,2013-01-19 11:16:00
2:36 AM,14.0,8.6,79,30.20,10.0,ENE,3.5,-,N/A,,Overcast,70,2013-01-19 11:36:00
2:56 AM,14.0,8.6,79,30.21,10.0,ENE,3.5,-,N/A,,Overcast,70,2013-01-19 11:56:00
3:16 AM,14.0,8.6,79,30.20,10.0,NE,3.5,-,N/A,,Overcast,50,2013-01-19 12:16:00
3:36 AM,12.2,8.6,85,30.20,10.0,Calm,Calm,-,N/A,,Overcast,0,2013-01-19 12:36:00
3:56 AM,12.2,8.6,85,30.20,10.0,Calm,Calm,-,N/A,,Overcast,0,2013-01-19 12:56:00
4:16 AM,12.2,8.6,85,30.19,10.0,Calm,Calm,-,N/A,,Overcast,0,2013-01-19 13:16:00
4:36 AM,12.2,10.4,92,30.19,10.0,Calm,Calm,-,N/A,,Overcast,0,2013-01-19 13:36:00
4:56 AM,12.2,8.6,85,30.18,10.0,Calm,Calm,-,N/A,,Overcast,0,2013-01-19 13:56:00
5:16 AM,12.2,8.6,85,30.18,10.0,Calm,Calm,-,N/A,,Overcast,0,2013-01-19 14:16:00
5:36 AM,12.2,8.6,85,30.18,10.0,Calm,Calm,-,N/A,,Overcast,0,2013-01-19 14:36:00
5:56 AM,12.2,10.4,92,30.17,10.0,Calm,Calm,-,N/A,,Overcast,0,2013-01-19 14:56:00
6:16 AM,14.0,10.4,86,30.17,10.0,East,5.8,-,N/A,,Overcast,80,2013-01-19 15:16:00
6:36 AM,15.8,10.4,79,30.16,10.0,ENE,5.8,-,N/A,,Overcast,70,2013-01-19 15:36:00
6:56 AM,17.6,12.2,79,30.16,10.0,ENE,6.9,-,N/A,,Overcast,60,2013-01-19 15:56:00
7:16 AM,17.6,12.2,79,30.16,10.0,ENE,9.2,-,N/A,,Overcast,60,2013-01-19 16:16:00
7:36 AM,17.6,12.2,79,30.15,7.0,ENE,8.1,-,N/A,,Overcast,60,2013-01-19 16:36:00
7:56 AM,17.6,12.2,79,30.15,2.0,NE,9.2,-,N/A,,Overcast,50,2013-01-19 16:56:00
8:16 AM,17.6,14.0,86,30.15,2.0,NE,8.1,-,N/A,,Overcast,50,2013-01-19 17:16:00
8:36 AM,17.6,14.0,86,30.14,5.0,ENE,10.4,-,N/A,,Overcast,60,2013-01-19 17:36:00
8:56 AM,17.6,14.0,86,30.14,10.0,NE,10.4,-,N/A,,Overcast,50,2013-01-19 17:56:00
9:16 AM,19.4,12.2,74,30.14,10.0,ENE,10.4,-,N/A,,Overcast,60,2013-01-19 18:16:00
9:36 AM,19.4,14.0,80,30.14,10.0,ENE,8.1,17.3,N/A,,Overcast,60,2013-01-19 18:36:00
9:56 AM,19.4,14.0,80,30.14,10.0,NE,11.5,16.1,N/A,,Overcast,50,2013-01-19 18:56:00
10:16 AM,19.4,14.0,80,30.13,10.0,ENE,6.9,-,N/A,,Overcast,60,2013-01-19 19:16:00
10:36 AM,19.4,15.8,86,30.13,10.0,NE,8.1,-,N/A,,Overcast,40,2013-01-19 19:36:00
10:56 AM,19.4,15.8,86,30.13,10.0,NE,9.2,-,N/A,,Overcast,50,2013-01-19 19:56:00
11:16 AM,19.4,15.8,86,30.13,10.0,NE,9.2,-,N/A,,Overcast,50,2013-01-19 20:16:00
11:36 AM,19.4,15.8,86,30.13,10.0,ENE,10.4,-,N/A,,Overcast,60,2013-01-19 20:36:00
11:56 AM,21.2,17.6,86,30.12,10.0,NE,9.2,-,N/A,,Overcast,50,2013-01-19 20:56:00
12:16 PM,21.2,17.6,86,30.12,10.0,NE,9.2,16.1,N/A,,Overcast,50,2013-01-19 21:16:00
12:36 PM,21.2,17.6,86,30.12,10.0,NE,9.2,-,N/A,,Overcast,50,2013-01-19 21:36:00
12:56 PM,21.2,17.6,86,30.10,10.0,NE,10.4,-,N/A,,Overcast,50,2013-01-19 21:56:00
1:16 PM,21.2,17.6,86,30.09,10.0,NE,8.1,-,N/A,,Overcast,50,2013-01-19 22:16:00
1:36 PM,21.2,17.6,86,30.09,10.0,NE,11.5,16.1,N/A,,Overcast,50,2013-01-19 22:36:00
1:56 PM,21.2,17.6,86,30.08,10.0,NE,5.8,-,N/A,,Overcast,50,2013-01-19 22:56:00
2:16 PM,23.0,17.6,80,30.07,10.0,NE,12.7,18.4,N/A,,Overcast,50,2013-01-19 23:16:00
2:36 PM,23.0,17.6,80,30.05,10.0,ENE,9.2,19.6,N/A,,Overcast,60,2013-01-19 23:36:00
2:56 PM,23.0,19.4,86,30.04,10.0,NE,9.2,19.6,N/A,,Overcast,50,2013-01-19 23:56:00
3:16 PM,23.0,17.6,80,30.03,10.0,ENE,9.2,16.1,N/A,,Overcast,60,2013-01-20 00:16:00
3:36 PM,23.0,19.4,86,30.02,8.0,NE,9.2,-,N/A,,Overcast,50,2013-01-20 00:36:00
3:56 PM,23.0,19.4,86,30.00,2.5,NE,9.2,-,N/A,,Overcast,40,2013-01-20 00:56:00
4:16 PM,23.0,19.4,86,29.99,5.0,NE,9.2,-,N/A,,Mostly Cloudy,50,2013-01-20 01:16:00
4:36 PM,23.0,19.4,86,29.98,10.0,NE,11.5,19.6,N/A,,Overcast,50,2013-01-20 01:36:00
4:56 PM,23.0,19.4,86,29.97,10.0,NE,9.2,-,N/A,,Overcast,50,2013-01-20 01:56:00
5:16 PM,24.8,19.4,80,29.96,10.0,ENE,10.4,-,N/A,,Mostly Cloudy,60,2013-01-20 02:16:00
5:36 PM,24.8,19.4,80,29.96,10.0,NE,8.1,-,N/A,,Partly Cloudy,50,2013-01-20 02:36:00
5:56 PM,24.8,19.4,80,29.95,10.0,ENE,10.4,-,N/A,,Mostly Cloudy,70,2013-01-20 02:56:00
6:16 PM,24.8,19.4,80,29.93,10.0,ENE,8.1,-,N/A,,Overcast,70,2013-01-20 03:16:00
6:36 PM,24.8,19.4,80,29.93,10.0,NE,9.2,16.1,N/A,,Overcast,50,2013-01-20 03:36:00
6:56 PM,24.8,19.4,80,29.92,10.0,NE,10.4,17.3,N/A,,Overcast,50,2013-01-20 03:56:00
7:16 PM,24.8,19.4,80,29.92,10.0,NE,8.1,17.3,N/A,,Overcast,40,2013-01-20 04:16:00
7:36 PM,24.8,19.4,80,29.91,10.0,ENE,10.4,16.1,N/A,,Overcast,60,2013-01-20 04:36:00
7:56 PM,24.8,19.4,80,29.92,10.0,NE,9.2,18.4,N/A,,Overcast,40,2013-01-20 04:56:00
8:16 PM,24.8,19.4,80,29.92,10.0,ENE,12.7,19.6,N/A,,Mostly Cloudy,60,2013-01-20 05:16:00
8:36 PM,24.8,19.4,80,29.90,10.0,NE,12.7,17.3,N/A,,Mostly Cloudy,50,2013-01-20 05:36:00
9:16 PM,24.8,19.4,80,29.90,10.0,NE,12.7,17.3,N/A,,Overcast,40,2013-01-20 06:16:00
9:36 PM,24.8,19.4,80,29.90,10.0,NE,9.2,-,N/A,,Overcast,50,2013-01-20 06:36:00
9:56 PM,24.8,19.4,80,29.90,10.0,NE,12.7,17.3,N/A,,Overcast,50,2013-01-20 06:56:00
10:16 PM,24.8,19.4,80,29.89,10.0,ENE,10.4,19.6,N/A,,Overcast,60,2013-01-20 07:16:00
10:36 PM,26.6,19.4,74,29.89,10.0,NE,9.2,19.6,N/A,,Overcast,50,2013-01-20 07:36:00
10:56 PM,26.6,19.4,74,29.89,10.0,ENE,10.4,21.9,N/A,,Overcast,60,2013-01-20 07:56:00
11:16 PM,26.6,19.4,74,29.88,10.0,NE,11.5,18.4,N/A,,Overcast,50,2013-01-20 08:16:00
11:36 PM,26.6,19.4,74,29.88,10.0,NE,6.9,16.1,N/A,,Overcast,50,2013-01-20 08:36:00
11:56 PM,26.6,21.2,80,29.88,10.0,NE,10.4,18.4,N/A,,Mostly Cloudy,50,2013-01-20 08:56:00